Preview of NWS' New Version of Forecast
This preview is not operational and should not be used for support decisions.

Regional Weather Roundup (RWR)

Issued by Philadelphia/Mt Holly (PHI)

                            
000
ASUS41 KPHI 170712
RWRPHI

REGIONAL WEATHER ROUNDUP
NATIONAL WEATHER SERVICE MOUNT HOLLY NJ
200 AM EST THU JAN 17 2019

NOTE:  "FAIR" INDICATES FEW OR NO CLOUDS BELOW 12,000 FEET WITH NO
SIGNIFICANT WEATHER AND/OR OBSTRUCTIONS TO VISIBILITY.

 * = STATION DOES NOT REPORT PRECIPITATION (E.G. RAIN, SNOW, ETC.) 
        OR FOG.

NJZ015>026-170800-
SOUTHERN NEW JERSEY
  
CITY           SKY/WX    TMP DP  RH WIND       PRES   REMARKS
POMONA         FAIR      28  22  78 W5        30.29R WCI  23          
WILDWOOD*      CLOUDY    38  23  55 N8        30.30R WCI  32          
MILLVILLE      CLOUDY    31  25  78 CALM      30.29R                  
WRIGHTSTOWN    FAIR      30  16  56 NW6       30.26R WCI  24          
MOUNT HOLLY    FAIR      32  19  58 N3        30.29R                  
TRENTON        FAIR      31  15  52 CALM      30.28R                  

$$
NJZ001>014-170800-
NORTHERN NEW JERSEY
  
CITY           SKY/WX    TMP DP  RH WIND       PRES   REMARKS
SUSSEX         FAIR      23   7  50 NW6       30.30R WCI  16          
ANDOVER*         N/A     23   7  50 VRB6      30.29R WCI  16          
MORRISTOWN     FAIR      28  10  47 NW8       30.29R WCI  20          
NEWARK         MOCLDY    29  10  45 NW17G29   30.29R WCI  17          
TETERBORO      FAIR      28   6  39 NW9G21    30.29R WCI  19          
CALDWELL       FAIR      27   7  42 NW13G24   30.29R WCI  16          
SOMERVILLE     FAIR      30  14  51 N6        30.28R WCI  24          
ALLAIRE*       FAIR      30  20  66 NW7       30.29R WCI  23          
TOMS RIVER*    FAIR      26  22  84 CALM      30.29R                  

$$
PAZ043-044-047-054-055-060>062-066>071-170800-
EASTERN PENNSYLVANIA
  
CITY           SKY/WX    TMP DP  RH WIND       PRES   REMARKS
PHILADELPHIA   MOCLDY    33  17  51 N12       30.31R WCI  24          
NORTH PHILA    FAIR      31  18  58 N6        30.31R WCI  25          
BLUE BELL*     FAIR      32  18  55 CALM      30.30R                  
DOYLESTOWN     FAIR      29  13  51 N6        30.27R WCI  23          
QUAKERTOWN*    CLEAR     28  12  50 NW3       30.28R                  
PERKASIE*      FAIR      28  14  54 N3        30.28R                  
POTTSTOWN      FAIR      30  14  51 N10       30.29R WCI  21          
LANCASTER      FAIR      34  18  52 NW9       30.28R WCI  27          
COATESVILLE    FAIR      32  19  59 N5        30.28R WCI  27          
READING        FAIR      30  18  60 N9        30.28R WCI  22          
ALLENTOWN      FAIR      28  14  55 N9        30.28R WCI  19          
MOUNT POCONO   MOCLDY    16   8  71 NW10      30.19R WCI   4          
HAZLETON       FAIR      21  12  68 N5        30.25R WCI  15          
LEHIGHTON      FAIR      28  14  54 CALM      30.30R                  
WILKES BARRE   FAIR      19   7  59 N5        30.28R WCI  12          

$$
DEZALL-MDZ008-012-015-019-020-170800-
DELAWARE AND EASTERN MARYLAND
  
CITY           SKY/WX    TMP DP  RH WIND       PRES   REMARKS
WILMINGTON     CLOUDY    35  24  64 NW8       30.30R WCI  29          
DOVER          CLOUDY    45  19  36 W3        30.30R                  
GEORGETOWN     CLOUDY    35  25  66 CALM      30.31R                  
EASTON         CLOUDY    35  26  68 CALM      30.34S                  
PATUXENT       CLOUDY    37  28  70 NW6       30.32  WCI  32          
OCEAN CITY     CLOUDY    30  26  85 NW3       30.31S                  
WALLOPS ISLAND FAIR      29  25  85 CALM      30.32R                  
CAMBRIDGE      CLOUDY    30  28  93 CALM      30.32R                  
SALISBURY      CLOUDY    31  27  85 CALM      30.31R                  

$$
PAZ001-021-NYZ056-072-MDZ011-DCZ001-170800-
OTHER NEARBY LOCATIONS
  
CITY           SKY/WX    TMP DP  RH WIND       PRES   REMARKS
HARRISBURG     MOCLDY    33  16  49 NW8       30.29R WCI  26          
STATE COLLEGE  FAIR      22  15  74 CALM      30.27S                  
WILLIAMSPORT   FAIR      23  10  57 NW5       30.31R WCI  17          
BINGHAMTON     FAIR      11   6  81 W5        30.22R WCI   3          
NEW YORK CITY  FAIR      30   3  31 MISG      30.30R                  
BALTIMORE      CLOUDY    36  25  64 W5        30.30R WCI  32          
WASHINGTON DC  CLOUDY    39  23  52 W6        30.32S WCI  35          

$$